Terug naar catalogus

STARLINK-4358

ActiefCommunicatieSSO
NORAD 53225·PAYLOAD·🇺🇸 United States

Gelanceerd Jul 22, 2022 vanaf Vandenberg Space Force Base

Loading…

Volgende Passages (komende 24 uur)

TLE

VersSource: CelesTrak SupGP

Epoch: Sep 15, 2026, 02:35 UTC

1 53225C 22084AN  26258.10812500  .00053440  00000+0  16589-2 0  2587
2 53225  97.2834 313.9335 0001623  84.3709 134.9502 15.33411405    14

Volg STARLINK-4358 in realtime met AllMySat

Download on the App Store